SCP
0 0 0 0 0 0 0 0 0 0 0 0 0 0 0 0 0 0 0 0 0 0 0 0 0 0 0 0 0 0 0 0 1 1 1 1 1 1
0 0 0 0 0 0 0 0 0 0 0 0 0 0 0 0 0 0 0 0 0 0 0 0 0 0 0 0 0 0 0 0 1 1 1 1 1 1
0 0 0 0 0 0 0 0 0 0 0 0 0 0 0 0 0 0 0 0 0 0 0 0 0 0 0 0 0 0 0 0 0 1 1 1 1 1
0 0 0 0 0 0 0 0 0 0 0 0 0 0 0 0 0 0 0 0 0 0 0 0 0 0 0 0 0 0 0 0 0 0 0 1 1 0
0 0 0 0 0 0 0 0 0 0 0 0 0 0 0 0 0 0 0 0 0 0 0 0 0 0 0 0 0 0 0 0 0 0 0 0 0 0
0 0 0 0 0 0 0 0 0 0 0 0 0 0 0 0 0 0 0 0 0 0 0 0 0 0 0 0 0 0 0 0 0 0 0 0 0 0
0 0 0 0 0 0 0 0 0 0 0 0 0 0 0 0 0 0 0 0 0 0 0 0 0 0 0 0 0 0 0 0 0 0 0 0 0 0
0 0 0 0 0 0 0 0 0 0 0 0 0 0 0 0 0 0 0 0 0 0 0 0 0 0 0 0 0 0 0 0 0 0 0 0 0 0
0 0 0 0 0 0 0 0 0 0 0 0 0 0 0 0 0 0 0 0 0 0 0 0 0 0 0 0 0 0 0 0 0 0 0 0 0 0
0 0 0 0 0 0 0 0 0 0 0 0 0 0 0 0 0 0 0 0 0 0 0 0 0 0 0 0 0 0 0 0 0 0 0 0 0 0
0 0 0 0 0 0 0 0 0 0 0 0 0 0 0 0 0 0 0 0 0 0 0 0 0 0 0 0 0 0 0 0 0 0 0 0 0 0
0 0 0 0 0 0 0 0 0 0 0 0 0 0 0 0 0 0 0 0 0 0 0 0 0 0 0 0 0 0 0 0 0 0 0 0 0 0
0 0 0 0 0 0 0 0 0 0 0 0 0 0 0 0 0 0 0 0 0 0 0 0 0 0 0 0 0 0 0 0 0 0 0 0 0 0
0 0 0 0 0 0 0 0 0 0 0 0 0 0 0 0 0 0 0 0 0 0 0 0 0 0 0 0 0 0 0 0 0 0 0 0 0 0
0 0 0 0 0 0 0 0 0 0 0 0 0 0 0 0 0 0 0 0 0 0 0 0 0 0 0 0 0 0 0 0 0 0 0 0 0 0
0 0 0 0 0 0 0 0 0 0 0 0 0 0 0 0 0 0 0 0 0 0 0 0 0 0 0 0 0 0 0 0 0 0 0 0 0 0
0 0 0 0 0 0 0 0 0 0 0 0 0 0 0 0 0 0 0 0 0 0 0 0 0 0 0 0 0 0 0 0 0 0 0 0 0 0
0 0 0 0 0 0 0 0 0 0 0 0 0 0 0 0 0 0 0 0 0 0 0 0 0 0 0 0 0 0 0 0 0 0 0 0 0 0
0 0 0 0 0 0 0 0 0 0 0 0 0 0 0 0 0 0 0 0 0 0 0 0 0 0 0 0 0 0 0 0 0 0 0 0 0 0
0 0 0 0 0 0 0 0 0 0 0 0 0 0 0 0 0 0 0 0 0 0 0 0 0 0 0 0 0 0 0 0 0 0 0 0 0 0
0 0 0 0 0 0 0 0 0 0 0 0 0 0 0 0 0 0 0 0 0 0 0 0 0 0 0 0 0 0 0 0 0 0 0 0 0 0
0 0 0 0 0 0 0 0 0 0 0 0 0 0 0 0 0 0 0 0 0 0 0 0 0 0 0 0 0 0 0 0 0 0 0 0 0 0
0 0 0 0 0 0 0 0 0 0 0 0 0 0 0 0 0 0 0 0 0 0 0 0 0 0 0 0 0 0 0 0 0 0 0 0 0 0
Wind_Speed
1 1 1 1 1 1 1 2 2 3 4 3 2 2 3 3 7 5 5 11 13 14 14 15 15 16 16 17 18 18 18 18 18 19 20 20 20 20
1 1 1 1 1 1 1 2 2 3 5 3 3 4 4 5 8 5 6 12 13 14 15 15 16 16 17 17 17 18 18 18 19 19 20 20 20 20
0 0 1 1 1 1 1 2 2 3 6 5 3 4 5 6 6 5 5 6 7 13 15 15 16 16 16 17 17 17 18 18 19 19 19 20 20 20
1 0 1 1 1 2 1 2 3 3 5 7 5 4 5 5 5 6 6 6 6 12 15 15 16 16 16 16 17 17 18 18 19 19 19 20 20 20
1 1 2 1 2 2 2 3 3 3 4 5 7 4 4 4 5 6 6 5 6 9 12 13 14 15 16 17 17 17 18 18 19 19 20 20 20 20
1 2 2 2 3 3 3 3 3 3 4 5 6 5 5 4 4 5 6 5 6 6 9 10 12 15 16 17 17 17 18 19 19 19 19 19 20 20
2 2 2 3 4 3 3 3 3 3 4 4 6 6 5 5 5 4 6 6 6 5 5 6 7 7 8 12 15 17 18 19 19 19 19 20 20 20
2 2 2 2 4 5 6 6 5 4 5 5 5 7 7 6 6 5 6 6 6 2 4 7 5 7 6 6 13 18 18 19 20 20 20 20 20 20
2 2 3 3 3 4 5 7 7 7 7 6 7 8 8 7 6 7 6 7 8 5 5 8 5 7 6 8 16 18 18 19 20 20 20 20 20 20
3 3 4 4 4 4 4 5 5 6 6 6 7 8 7 6 5 6 7 8 7 5 4 7 6 6 7 7 14 17 18 19 19 20 21 20 20 19
3 3 4 5 7 6 4 6 7 7 7 9 10 10 11 11 7 4 4 5 7 5 3 4 5 7 7 7 9 14 16 18 19 20 21 21 20 19
3 4 5 7 8 8 5 5 7 8 6 6 7 9 9 9 9 5 5 5 6 6 2 3 4 5 7 5 5 6 8 14 19 20 20 20 20 12
4 4 4 8 9 9 7 6 9 7 5 6 6 6 5 5 5 5 5 6 6 7 4 3 4 4 5 8 6 6 6 7 9 11 15 19 20 15
5 4 5 8 9 9 7 8 10 7 4 4 5 5 5 5 5 5 6 7 8 9 7 5 5 5 6 8 9 7 6 7 8 9 8 14 15 17
4 6 8 9 9 7 8 9 6 4 4 5 6 6 6 5 5 5 5 6 7 8 7 7 7 6 6 8 9 8 9 8 7 7 8 9 9 8
4 5 8 8 7 6 5 5 4 4 5 6 6 6 5 4 4 4 5 5 6 7 6 7 7 8 8 10 10 11 9 8 7 8 9 9 9 8
2 2 3 3 4 4 4 4 4 4 5 5 5 6 5 5 5 4 4 4 5 7 7 5 5 6 9 10 10 10 10 9 9 9 9 10 9 8
2 3 4 4 5 5 5 5 4 5 5 5 5 5 5 5 6 5 4 5 7 7 7 6 5 6 6 8 11 10 8 9 8 8 8 9 11 8
3 4 5 5 5 5 5 5 6 5 5 5 5 5 5 5 5 6 5 6 7 7 7 6 5 5 7 10 8 8 8 8 8 8 8 8 10 10
3 4 5 5 5 5 5 5 5 5 4 5 5 5 5 5 6 6 6 7 7 8 8 6 5 5 7 9 9 9 11 9 8 9 9 8 9 12
4 5 5 5 5 5 5 5 5 5 5 5 5 6 5 5 6 6 7 8 7 7 9 9 7 8 7 6 8 9 8 10 11 9 8 8 9 7
5 5 5 5 5 5 5 5 5 5 6 5 5 5 5 5 7 7 7 7 7 7 9 8 7 6 5 7 10 11 11 9 10 14 14 12 7 7
5 5 5 5 5 5 5 5 6 6 6 5 5 5 5 6 6 6 7 7 7 7 7 7 7 6 6 7 8 9 11 11 8 8 8 11 14 16
Wind_Direction
219 225 225 248 242 252 237 220 231 278 287 264 272 269 281 286 297 293 289 297 301 303 305 306 306 305 304 305 306 305 304 303 303 303 302 300 299 298
220 218 244 253 248 251 255 261 243 244 269 270 264 279 290 296 299 296 288 298 297 300 302 304 303 303 304 306 306 306 305 304 304 303 304 301 299 298
272 251 276 277 264 265 265 262 255 247 263 279 276 284 285 292 300 294 289 287 289 296 300 301 303 303 305 305 306 306 306 307 306 304 303 302 299 298
243 236 276 286 284 278 267 266 263 254 256 276 286 286 281 288 293 293 296 294 288 294 299 301 303 304 306 306 305 306 306 307 306 304 302 302 300 297
226 229 253 256 272 275 269 268 268 270 261 269 282 283 281 292 299 296 292 289 291 296 301 301 302 305 307 307 307 307 306 305 304 304 302 299 299 297
256 254 255 245 254 259 264 267 268 268 268 271 280 287 286 292 294 298 301 297 295 298 297 298 302 305 306 307 307 307 305 303 303 302 302 301 300 298
280 278 278 284 285 279 277 270 264 264 271 274 280 288 290 299 294 295 294 300 291 283 294 292 293 291 294 299 302 302 302 303 303 303 302 301 301 299
281 291 289 291 294 286 282 282 277 267 269 271 276 279 285 288 291 292 296 305 298 284 295 290 282 284 285 282 294 300 301 303 305 305 304 302 301 300
274 285 288 294 283 281 285 286 280 278 273 269 273 275 282 285 289 289 286 283 281 291 298 289 283 282 283 289 298 300 301 303 305 306 305 304 302 301
270 271 274 286 287 285 284 284 280 277 277 268 267 274 280 286 277 281 284 288 285 276 275 283 289 287 292 286 291 295 300 304 306 307 306 305 304 303
275 275 273 275 286 288 280 279 283 284 285 279 277 280 286 289 294 297 296 296 292 287 261 272 291 302 291 277 280 292 299 304 305 306 307 306 305 303
275 275 273 276 286 286 269 268 276 282 291 295 285 285 284 284 287 271 269 274 284 286 258 276 291 314 302 279 280 288 292 297 302 305 306 306 306 302
274 276 275 285 285 284 276 265 275 289 290 285 285 285 285 281 276 271 261 256 263 266 268 281 282 283 274 293 294 282 282 288 296 296 300 302 303 303
267 275 282 294 291 288 282 283 288 289 281 281 281 282 285 285 284 280 273 267 261 266 269 260 263 269 280 286 288 291 288 285 289 291 293 296 297 298
267 280 291 297 296 288 286 290 288 277 274 274 277 278 280 282 286 286 279 274 272 267 263 256 258 267 264 270 280 288 298 294 282 286 291 293 291 291
280 288 294 295 293 290 290 284 272 268 266 269 276 280 284 283 279 281 285 295 292 284 265 254 254 258 266 268 270 278 280 281 289 291 293 290 287 280
294 299 298 300 299 296 292 284 278 276 271 272 276 283 285 285 284 285 277 280 276 288 296 289 267 259 259 264 269 267 273 278 280 289 292 291 286 280
288 277 280 281 281 286 289 290 283 278 277 278 278 278 282 285 287 287 278 273 277 281 287 295 303 305 292 264 244 261 270 277 285 286 287 287 287 284
255 263 269 274 277 278 278 279 280 280 280 278 277 277 279 281 282 284 283 280 279 281 283 285 284 286 296 297 280 253 271 286 289 287 282 278 281 286
254 259 266 270 274 276 277 280 284 289 283 279 277 276 274 275 278 279 279 276 282 286 286 280 271 266 268 281 287 286 276 274 279 283 285 285 279 283
260 259 261 265 268 271 273 274 275 277 279 280 277 275 275 278 277 276 277 277 277 279 283 284 282 282 279 281 282 283 281 276 279 281 286 290 293 293
261 262 263 263 267 269 271 273 274 273 274 271 275 277 273 270 274 278 277 278 277 277 281 288 292 289 273 270 279 288 296 299 293 290 282 273 276 279
262 265 267 268 266 267 268 270 271 273 272 271 274 275 276 276 274 273 275 276 279 283 289 296 300 292 280 275 281 287 292 299 304 306 295 292 287 283